Wind_Speed
28 27 26 26 25 24 23 22 21 21 20 19 18 18 17 17 16 16 15 14 13 12 11 10 9 8 8 7 6 6 5 5 6 6 7 9 10 10 11 12 12 12 12 12 13 13 13 13 14 14 14 15 16 16 17 17 18 18 18 18 18 18 18 18 19 20 21 22 20 19 17 14 14 15 14 13 13 12 12 12 12 12 12 12 11 11 11 11
28 27 27 26 26 25 25 24 23 22 21 21 20 19 19 18 18 17 16 16 15 14 13 12 11 10 10 9 9 8 8 8 8 9 10 11 11 12 13 14 14 15 15 15 15 15 15 16 16 16 16 17 18 18 19 19 19 19 19 19 19 19 20 20 21 22 23 21 19 17 16 14 13 14 14 15 15 14 14 14 13 12 12 13 12 12 12 12
28 28 27 27 27 26 26 25 25 24 23 22 21 21 20 20 19 19 18 17 16 16 15 14 13 12 12 11 11 11 10 10 11 11 12 13 13 14 15 15 16 16 17 17 17 17 17 17 18 18 18 18 19 20 20 20 20 20 20 20 20 21 22 22 22 23 22 20 17 16 15 14 14 14 15 16 16 16 16 16 14 13 13 13 13 14 14 13
29 29 28 28 28 27 27 26 26 25 24 23 23 22 22 21 21 21 20 19 18 17 17 16 15 14 14 13 13 13 13 13 13 13 14 15 15 16 16 17 17 18 18 18 18 18 18 19 19 19 19 19 20 20 21 21 21 21 22 22 22 22 22 22 21 21 20 18 15 15 15 15 14 14 16 17 18 18 19 18 16 15 14 14 14 15 15 15
31 30 29 29 28 28 27 27 26 26 25 25 24 24 23 23 23 22 22 21 20 19 19 18 17 17 16 15 15 15 15 15 15 15 16 17 17 17 18 18 19 19 19 19 19 19 19 19 19 19 20 20 21 22 22 22 22 22 22 22 22 21 20 20 19 19 18 16 15 15 16 16 15 16 17 17 18 20 20 19 18 18 17 16 16 15 15 15
32 32 31 30 30 29 28 28 27 27 26 26 26 25 25 25 24 24 24 23 22 21 21 20 19 19 18 17 17 17 18 18 17 18 18 19 19 19 19 19 20 20 20 20 20 20 20 20 20 20 21 22 22 23 23 23 22 21 21 20 20 20 19 19 18 18 17 15 15 16 17 17 17 17 18 19 19 21 20 20 20 20 19 19 18 17 16 15
34 33 33 32 31 30 30 29 29 29 28 28 28 27 27 26 26 26 25 25 24 24 23 22 21 21 20 20 19 20 21 20 19 20 21 21 20 20 20 20 20 21 21 21 21 21 21 21 21 22 23 23 24 23 23 22 21 21 20 20 21 21 20 20 19 18 17 16 16 17 18 18 19 19 20 21 20 21 20 20 21 21 21 21 20 19 18 17
36 35 34 34 33 32 32 31 31 31 30 30 30 29 29 28 28 28 28 27 26 26 25 24 23 23 22 22 22 22 24 23 21 22 23 22 22 22 21 21 21 22 22 22 22 22 22 23 23 24 25 25 24 24 23 22 22 22 22 22 22 22 22 21 20 19 18 18 18 19 20 20 21 22 23 22 22 21 21 21 22 22 22 22 21 20 20 19
38 37 36 36 35 35 34 34 33 33 32 32 32 32 31 31 30 30 29 29 28 28 27 26 25 25 24 24 24 24 26 25 23 24 24 24 24 23 23 23 23 23 23 23 23 24 24 25 26 26 26 26 26 25 24 24 23 23 23 24 24 24 24 23 22 21 20 20 20 21 22 23 24 25 25 24 24 23 22 22 23 23 22 22 21 20 20 19
40 39 39 38 37 37 36 36 35 35 35 34 34 34 33 33 32 32 31 31 30 30 29 28 28 27 26 26 25 26 28 27 26 26 26 26 25 25 25 24 24 24 25 25 26 26 27 27 28 28 28 27 27 26 25 25 25 24 24 25 25 25 25 25 24 23 23 22 23 24 24 25 26 27 26 26 25 24 24 24 24 23 22 21 21 20 20 20
42 41 41 40 39 39 38 38 37 37 37 36 36 36 35 35 35 34 33 33 32 32 31 30 30 29 29 28 28 29 30 29 28 28 27 27 27 27 26 26 26 26 27 27 28 28 29 30 30 30 29 28 27 27 26 26 25 25 25 25 25 26 25 25 25 25 24 24 24 25 26 27 27 28 28 27 26 25 25 25 24 23 22 21 21 21 20 20
43 43 42 42 41 40 40 39 39 39 38 38 38 38 37 37 37 36 35 35 34 33 33 32 32 31 31 31 30 31 32 31 30 30 29 29 28 28 28 28 28 28 29 29 30 30 31 31 31 30 29 28 27 27 27 26 26 26 25 26 26 26 26 25 26 26 25 25 25 26 27 27 28 29 28 28 28 27 26 25 24 23 23 22 22 22 21 21
45 44 44 43 43 42 41 41 41 40 40 40 40 39 39 39 38 38 37 36 36 35 35 34 34 34 34 33 32 33 33 33 32 32 31 31 30 30 30 30 30 31 31 32 32 32 33 32 31 30 29 28 28 28 28 27 27 27 27 26 26 27 26 26 25 26 26 27 26 27 27 27 28 29 29 28 28 27 26 25 24 23 23 23 23 23 23 23
46 46 45 44 44 43 43 43 42 42 42 42 41 41 41 40 40 39 39 38 38 37 37 37 36 36 36 35 34 35 35 34 34 33 33 32 32 32 32 32 33 33 33 34 34 34 33 33 32 30 30 29 29 29 29 28 28 27 27 26 26 26 26 25 25 26 27 28 28 28 28 27 28 29 28 28 26 26 25 25 25 24 23 23 24 25 25 25
48 47 46 46 45 45 45 44 44 44 43 43 43 43 42 42 42 41 41 40 40 40 39 39 39 39 38 37 36 36 36 36 35 35 35 34 34 34 34 34 35 35 35 35 35 35 34 33 32 31 31 30 29 29 29 28 27 27 27 26 25 25 24 25 26 27 28 29 29 29 28 27 27 28 28 27 25 25 25 25 26 26 25 25 25 25 25 25
50 49 48 47 47 46 46 45 45 45 45 45 44 44 44 44 44 43 43 43 42 42 41 41 41 41 40 39 38 37 37 37 37 37 36 36 36 36 36 37 36 36 36 36 36 35 34 33 33 32 30 29 28 28 29 28 27 28 28 26 24 24 25 26 27 28 29 29 28 29 28 27 27 28 27 26 25 25 26 26 27 27 27 27 27 27 26 25
50 50 49 48 48 48 48 47 46 46 46 46 46 46 46 46 45 45 45 45 45 44 44 43 43 43 43 41 39 39 39 39 39 38 38 38 39 38 38 38 38 38 37 37 36 35 35 34 33 31 29 27 27 29 30 30 29 29 29 27 26 25 25 26 27 29 29 28 28 28 27 27 28 28 28 27 27 27 28 28 28 28 28 28 28 27 26 25
51 50 50 49 49 49 50 49 48 48 48 48 48 48 48 48 48 48 47 47 47 46 46 45 45 45 44 42 40 40 40 40 40 40 41 41 41 41 40 40 39 39 38 37 36 36 35 34 32 30 28 27 29 31 32 31 31 30 29 28 27 26 25 25 27 29 28 29 28 28 27 28 28 28 28 28 29 30 30 31 30 30 29 29 28 27 27 26
51 51 51 50 50 50 50 50 50 50 50 50 50 50 50 50 50 49 49 48 48 47 47 47 46 46 45 43 42 42 42 42 42 43 43 42 42 42 41 41 40 39 39 38 37 36 34 33 31 29 27 29 31 32 32 31 30 30 30 29 28 27 26 25 28 30 30 30 29 29 29 29 29 30 29 30 30 32 32 32 32 31 30 29 28 28 27 27
52 51 51 51 51 51 51 51 51 51 51 51 51 51 51 51 51 50 50 49 49 48 49 48 48 47 46 45 44 44 44 44 45 44 44 44 44 43 43 42 41 41 40 38 37 35 33 33 31 28 28 31 32 32 31 31 31 31 31 31 31 30 28 28 31 32 33 33 31 31 31 30 30 31 30 31 31 31 31 32 32 31 30 29 29 28 28 27
53 53 53 52 52 52 52 52 53 52 52 53 52 52 51 51 51 51 51 50 50 50 50 50 49 49 48 47 47 46 46 46 46 46 45 45 45 45 44 43 42 41 39 38 36 33 34 34 29 28 31 32 32 31 32 32 32 33 33 33 33 32 31 31 33 33 34 35 33 32 32 31 32 32 31 31 30 30 30 30 30 29 29 29 28 28 28 28
54 54 54 53 53 53 53 53 53 53 54 54 54 53 53 52 53 53 53 53 52 52 52 51 51 50 49 49 48 48 47 46 46 45 44 44 44 44 43 42 41 39 37 36 35 34 35 33 29 30 33 32 32 33 33 33 33 34 34 35 34 32 32 34 34 34 35 35 33 33 32 31 32 31 30 30 29 29 28 28 27 27 27 27 27 27 27 28
56 55 55 54 54 54 54 54 54 54 54 54 54 54 54 54 54 54 55 55 54 53 53 52 51 50 49 49 48 47 46 45 44 43 42 42 42 41 40 38 37 36 35 35 34 36 36 33 31 33 33 32 33 33 33 33 33 33 34 35 35 33 35 36 35 34 35 35 34 33 33 31 31 31 29 28 28 27 26 25 25 25 25 26 26 27 27 28
57 57 57 56 55 55 55 55 55 54 54 54 54 54 54 54 54 54 55 55 54 52 51 51 50 49 48 47 46 46 45 43 42 41 40 40 39 38 37 36 36 36 35 35 36 37 36 34 34 34 33 33 34 33 33 33 33 34 35 35 34 34 36 37 36 35 35 35 34 34 34 31 29 30 28 27 27 25 24 23 23 23 24 25 26 27 28 28
59 58 58 58 58 57 57 57 55 55 55 54 54 55 55 54 54 54 54 55 56 52 50 50 50 49 47 47 47 45 44 43 41 40 39 38 38 37 37 36 37 37 36 36 37 38 37 35 35 35 34 35 35 34 34 35 36 37 36 35 35 35 36 36 36 36 36 35 33 34 34 28 26 28 27 25 25 23 23 23 23 23 24 25 26 27 28 29
60 60 59 59 59 59 59 58 57 57 56 55 55 55 55 55 55 55 55 57 58 53 50 50 50 50 48 47 46 45 45 44 41 40 40 39 38 38 39 39 39 38 37 37 39 40 38 35 35 36 36 36 36 36 36 38 40 39 37 36 36 36 36 36 37 37 37 35 33 32 32 27 25 25 24 23 23 22 22 23 23 24 26 27 28 29 30 31
62 62 62 62 62 62 61 60 59 59 57 57 57 57 56 56 56 56 55 58 58 53 50 50 50 50 48 47 46 46 46 44 40 40 40 40 40 40 41 41 39 38 38 39 42 41 37 36 37 37 37 37 37 37 38 41 43 42 39 38 38 37 36 36 36 36 36 35 33 31 29 28 26 24 23 23 22 22 22 23 24 25 27 28 29 30 31 32
61 61 62 62 63 64 63 63 63 61 60 60 60 59 59 58 57 56 55 58 59 54 52 51 48 48 47 47 46 46 46 44 41 41 41 41 42 42 43 41 40 39 39 41 42 40 38 38 38 38 38 39 39 40 42 44 45 44 41 40 39 38 37 37 36 36 35 35 34 29 27 30 28 24 24 23 21 22 23 24 25 26 27 28 29 31 32 33
60 60 59 59 59 60 61 62 64 65 64 63 62 61 60 59 58 56 56 59 59 57 56 52 49 48 48 48 47 46 46 44 43 43 42 42 43 43 43 42 42 42 42 42 43 42 40 40 39 39 40 40 41 43 44 46 46 45 43 40 39 38 38 37 37 36 36 36 33 28 27 30 31 27 24 22 21 22 24 24 26 26 27 29 30 31 33 34
62 61 60 58 56 56 57 57 62 68 68 65 64 63 62 62 60 58 61 61 59 60 60 55 51 50 49 49 48 47 46 44 44 44 44 43 43 43 43 43 44 44 44 44 44 43 42 41 41 41 41 42 43 45 47 47 46 44 41 39 37 37 38 38 38 37 37 36 31 27 27 31 34 30 24 23 24 25 26 26 26 27 28 29 31 32 33 33
62 61 61 60 57 55 55 54 58 65 68 68 66 65 64 63 61 62 63 61 59 62 61 57 53 52 51 51 49 48 47 46 46 46 46 45 44 43 43 43 44 44 45 45 44 43 43 43 43 42 43 44 45 46 46 44 42 40 38 36 36 37 38 38 38 37 37 35 30 28 29 32 35 32 26 27 28 28 29 28 28 28 29 31 32 33 33 33
62 61 61 59 56 54 53 54 56 60 64 67 67 67 66 65 66 67 64 60 61 62 60 58 56 54 52 51 50 49 48 47 46 47 47 47 46 45 43 44 44 45 47 46 44 44 44 44 44 44 44 44 45 45 42 39 38 37 36 36 36 38 38 39 38 37 35 34 31 30 32 33 33 30 30 32 32 31 31 29 29 29 30 31 33 34 34 34
63 62 61 59 57 54 53 53 55 57 60 64 67 68 67 68 70 67 64 63 63 62 60 60 60 57 55 53 51 50 48 48 48 47 47 48 48 47 45 45 44 45 46 46 45 45 46 46 45 45 44 44 43 41 38 37 36 37 36 36 37 38 38 38 37 36 35 34 33 33 34 33 30 28 30 32 34 33 32 31 30 30 31 33 34 35 35 36
63 63 62 60 59 56 53 53 55 57 60 63 67 69 70 72 70 67 66 65 64 63 62 62 62 59 57 55 54 53 51 51 50 49 49 49 49 48 46 45 44 44 45 46 47 47 47 47 45 45 44 43 41 38 37 37 37 37 36 36 37 37 37 37 36 36 36 35 34 34 34 31 29 29 31 32 33 33 33 33 33 33 34 35 35 36 36 38
62 62 62 61 60 57 54 55 57 58 61 64 67 71 72 70 66 66 68 66 63 63 61 60 61 59 57 56 55 54 53 52 51 50 50 50 51 50 49 48 47 46 46 47 48 47 48 48 46 45 44 41 40 38 38 38 37 35 35 36 35 33 34 36 37 38 38 37 36 34 33 31 31 32 33 33 33 33 33 35 35 36 37 37 37 37 38 39
62 62 62 61 59 57 54 55 58 61 63 65 69 72 68 63 62 65 67 64 62 61 59 59 60 59 59 58 57 56 55 54 53 52 50 50 51 51 51 49 47 47 46 46 47 47 48 48 46 44 41 39 39 38 37 37 36 35 34 33 32 33 35 38 39 39 39 39 36 33 33 33 33 34 34 34 34 34 35 36 37 38 38 39 39 40 40 41
58 60 61 60 58 56 55 56 60 65 67 69 73 71 62 59 61 62 62 63 62 60 59 59 60 59 60 60 59 58 58 57 56 55 52 50 50 50 49 47 46 46 45 44 46 47 47 46 43 40 39 38 38 38 38 38 37 36 34 32 33 36 38 40 41 41 40 40 38 36 36 36 36 36 35 35 36 37 37 38 39 39 39 40 41 41 42 42
52 56 59 59 58 57 56 59 63 67 70 74 76 70 63 61 61 59 59 59 58 57 57 58 59 60 61 61 60 60 60 60 58 57 55 53 51 49 47 46 46 45 43 43 45 46 45 44 42 41 40 39 39 39 40 40 39 36 34 34 37 39 39 40 42 43 42 43 42 40 40 40 40 38 37 38 39 39 40 40 40 41 41 42 42 43 43 43
49 53 54 52 54 56 55 57 63 68 71 74 74 70 66 65 62 61 61 59 57 58 59 60 61 61 61 60 59 59 59 58 56 55 53 51 50 49 47 46 45 44 42 42 44 44 44 44 44 43 42 41 41 42 41 40 39 38 39 39 39 40 40 42 43 44 45 46 45 45 45 44 43 41 41 42 42 41 41 41 42 42 42 43 43 43 43 43
51 52 50 46 48 50 50 52 58 65 70 72 72 69 67 67 64 62 63 62 63 63 62 61 59 58 57 55 54 54 54 54 54 53 52 49 48 47 45 43 41 40 41 42 43 44 45 45 46 45 44 44 44 42 40 39 40 42 44 44 43 42 42 43 45 47 49 48 47 47 48 48 47 46 46 45 44 43 43 43 43 43 43 44 44 44 44 45
57 58 53 49 50 50 50 53 58 62 65 66 65 64 63 66 65 62 60 60 60 59 58 56 54 52 51 49 48 48 48 49 50 49 48 46 43 41 40 39 39 39 40 42 43 43 45 45 46 46 47 47 45 42 41 43 45 46 47 47 46 44 45 48 50 50 49 48 47 48 50 51 51 51 49 47 45 45 45 45 44 44 45 45 46 46 46 47
59 62 58 54 54 52 54 57 59 61 64 61 58 56 56 57 57 57 56 55 55 55 54 54 52 51 49 48 48 47 47 46 45 44 43 41 40 39 39 40 40 39 40 41 41 42 43 44 45 46 47 47 45 44 44 45 46 47 49 48 48 49 51 52 52 50 48 48 49 50 52 51 51 52 50 47 47 48 48 48 47 47 48 48 48 48 49 49
57 57 58 60 60 57 58 60 59 59 61 59 56 55 54 52 52 53 54 54 55 55 54 53 52 51 50 49 49 48 47 45 44 44 43 42 42 42 42 42 40 40 41 41 40 41 43 45 47 47 46 46 46 46 46 46 46 48 48 48 50 53 53 51 50 49 50 51 52 53 54 52 50 50 49 49 50 51 51 51 51 51 51 50 50 51 52 52
55 50 52 59 63 63 64 64 63 61 59 57 57 58 56 54 54 54 55 56 56 55 54 54 52 51 50 50 49 49 48 48 47 47 46 46 45 45 44 44 43 43 44 43 42 42 44 46 48 49 49 48 48 48 47 46 46 47 47 49 52 52 50 49 49 51 53 54 55 55 54 52 49 49 51 53 53 53 53 52 52 52 52 52 52 52 52 53
55 53 54 58 62 66 68 67 65 63 61 59 59 59 58 58 58 57 57 58 57 55 55 55 54 53 53 52 51 50 50 50 50 49 49 47 47 46 46 46 47 47 47 47 45 44 46 47 49 50 51 50 50 50 49 48 48 49 50 51 51 50 49 49 50 54 57 56 55 54 52 50 50 52 55 56 56 55 54 54 54 54 54 54 54 54 54 55
54 56 59 62 63 66 68 67 66 64 62 62 62 60 59 60 60 60 60 60 60 59 58 58 58 58 57 55 53 53 52 51 50 50 50 49 49 49 49 50 51 51 51 53 51 47 47 49 50 51 52 53 54 55 55 53 52 52 52 52 52 52 51 52 54 57 56 54 53 52 50 50 52 56 58 56 56 57 57 56 55 55 55 55 55 56 58 59
58 56 57 60 63 65 66 67 67 66 64 62 63 63 61 61 61 61 62 63 63 62 62 62 63 62 60 57 55 55 54 52 52 52 53 53 54 54 54 54 55 54 55 56 55 51 50 51 52 52 54 56 57 57 56 55 53 52 51 51 51 52 53 55 56 56 54 55 54 52 52 54 56 59 60 57 56 58 57 56 57 57 57 57 58 59 61 62
65 61 57 56 57 60 63 64 65 66 64 63 63 63 64 65 65 65 65 65 65 63 62 62 62 61 61 59 57 56 55 55 56 57 58 58 58 58 57 56 56 56 56 56 56 54 54 54 54 54 55 57 58 59 57 54 53 52 51 50 49 51 54 56 57 56 56 57 55 54 58 61 59 60 60 58 57 57 57 58 58 56 57 58 59 61 62 63
69 67 63 59 56 54 57 60 62 61 61 61 63 64 67 67 66 65 65 65 63 61 58 57 55 54 57 59 58 58 58 58 59 59 58 58 57 56 56 56 56 56 54 53 53 53 54 55 55 56 58 59 61 61 58 54 53 52 52 52 52 54 56 57 57 56 58 59 59 60 63 62 59 60 61 59 58 58 58 58 55 54 56 58 60 62 64 65
69 68 66 63 61 56 54 57 59 58 57 59 61 63 66 65 62 60 60 60 59 57 56 55 53 53 55 58 58 59 59 58 58 57 55 55 55 55 55 56 55 54 54 52 51 52 55 57 57 57 57 59 60 60 57 54 53 54 54 54 55 56 57 57 58 58 61 63 63 63 64 61 59 61 62 60 60 59 59 58 56 56 58 60 62 65 67 68
71 68 65 62 61 60 58 57 56 55 54 56 59 60 61 60 57 55 55 56 56 56 56 56 55 56 57 57 56 56 55 54 54 54 53 54 56 56 56 55 54 54 55 53 52 53 55 57 56 55 55 56 55 56 56 54 55 56 54 52 55 58 58 60 61 62 63 64 63 64 65 62 60 61 62 62 62 61 60 60 59 59 61 64 66 68 69 68
74 72 69 63 61 61 62 60 58 57 55 55 55 56 57 56 54 53 52 52 52 53 55 55 55 55 55 52 51 53 54 53 54 54 55 55 56 56 56 55 55 55 54 54 53 54 54 54 54 53 54 54 54 55 55 55 57 57 53 52 56 59 60 62 63 62 62 64 66 67 66 63 62 63 64 63 63 62 62 62 63 64 65 67 68 69 68 67
Wind_Direction
200 200 201 202 202 204 205 207 209 210 212 214 215 217 219 220 222 222 221 220 220 220 221 223 225 229 235 239 242 244 248 255 261 265 263 260 257 256 254 253 252 251 250 250 252 254 256 259 262 265 269 273 277 280 282 284 287 289 290 292 294 295 296 298 299 301 302 303 303 301 297 289 280 282 287 292 298 312 317 309 307 307 306 306 306 307 306 305
204 205 205 206 207 207 208 209 211 213 215 217 219 221 224 226 227 228 228 227 227 227 228 229 231 235 239 245 249 252 256 260 265 267 266 263 261 258 257 256 255 255 255 255 257 258 260 263 265 268 271 274 277 280 282 284 286 288 289 291 292 294 294 296 297 298 299 300 299 295 290 282 276 278 283 289 299 310 309 303 303 304 302 302 302 302 301 299
209 210 210 211 211 211 211 212 214 215 217 220 222 225 227 230 232 233 233 233 233 233 234 235 237 240 243 247 252 256 260 265 269 270 269 267 263 260 259 259 258 258 258 258 259 261 263 265 267 270 272 275 277 279 281 283 285 287 288 289 291 292 293 294 295 295 296 296 293 288 283 278 277 278 281 288 297 304 303 301 303 302 299 298 299 300 298 297
212 213 214 215 215 215 215 216 217 218 220 223 225 228 230 233 235 236 238 238 238 238 238 239 241 244 246 250 254 258 263 267 270 272 273 270 266 262 260 260 260 260 260 261 261 263 265 267 269 272 274 276 278 280 282 284 285 287 288 289 290 291 292 292 293 293 292 291 287 281 278 276 276 278 281 287 295 300 300 302 303 301 296 295 295 295 296 295
215 216 217 218 218 219 219 220 221 223 224 227 229 231 233 235 237 239 240 241 241 241 241 242 244 246 249 252 255 260 265 268 270 274 274 272 269 265 261 260 260 260 261 262 262 264 266 268 271 273 276 279 281 283 285 285 286 287 288 288 289 290 291 292 292 291 289 286 281 276 275 275 274 275 278 284 291 295 298 300 301 299 296 295 295 294 293 292
218 219 219 220 221 222 223 224 226 227 228 230 232 234 235 236 238 240 241 242 243 243 244 244 246 249 251 254 257 261 265 268 272 275 275 273 271 267 263 261 260 260 261 262 263 265 266 269 272 275 279 282 285 286 286 286 286 286 287 288 288 289 290 290 290 288 285 280 276 273 273 274 274 274 277 282 287 291 294 297 297 296 297 298 298 296 293 289
221 222 222 223 224 225 225 227 229 230 231 233 235 236 237 238 239 241 242 243 244 245 246 246 248 250 253 255 258 262 266 269 273 275 275 274 272 267 264 262 260 260 261 262 263 265 267 270 274 278 282 285 286 286 285 285 284 284 285 286 287 287 287 287 286 284 280 276 272 271 272 273 274 276 279 283 286 288 292 294 293 294 297 298 299 298 295 290
223 224 225 225 226 227 227 229 230 232 233 235 236 237 239 239 240 242 243 244 245 246 247 248 250 252 254 256 260 263 267 270 272 274 275 274 271 267 264 262 261 261 261 263 264 266 269 272 276 280 283 285 286 284 283 283 282 283 284 285 286 286 285 284 283 280 277 273 271 271 272 274 276 278 281 285 287 288 290 290 291 293 296 297 297 296 294 291
226 226 226 227 228 228 229 230 232 233 234 235 237 238 239 240 241 242 244 245 246 247 248 250 251 253 255 257 261 265 267 270 272 273 274 273 271 268 265 263 262 262 262 263 265 268 271 275 278 281 284 285 285 283 282 282 282 283 285 285 285 285 284 282 280 278 275 273 272 272 274 277 279 281 283 285 287 289 290 290 291 293 294 294 294 292 291 289
227 228 228 228 229 230 231 231 233 234 235 236 238 239 240 241 242 243 244 245 247 248 249 251 252 254 256 258 261 265 268 271 273 273 273 272 270 267 265 263 262 263 263 265 268 271 275 278 281 283 284 285 284 283 282 281 282 283 284 285 285 285 284 282 280 278 275 274 274 275 278 279 281 283 285 286 287 289 290 289 290 291 291 290 289 288 287 286
229 230 230 230 231 231 232 232 234 235 236 237 238 239 241 242 243 244 244 245 247 249 250 252 253 255 257 259 262 265 268 271 272 273 272 271 268 266 264 263 263 264 266 268 272 275 278 281 283 284 284 284 283 282 281 281 281 282 283 284 284 283 283 282 281 279 278 277 277 278 279 280 282 284 285 287 288 289 288 288 288 288 286 284 283 282 281 281
231 231 232 232 232 233 233 233 234 235 236 237 239 240 241 243 244 245 245 246 248 249 251 252 254 256 257 260 262 265 268 271 272 272 271 269 266 265 264 264 265 267 269 272 275 278 280 282 283 283 283 283 282 281 280 280 281 282 282 282 282 281 280 280 280 280 280 279 278 278 279 281 282 283 284 286 288 288 288 287 286 285 283 281 281 280 279 279
233 233 233 233 234 234 235 235 236 236 237 238 240 241 242 243 244 245 247 248 249 250 251 253 254 256 258 260 263 266 268 270 271 271 269 267 266 265 265 266 268 270 273 275 277 279 281 282 282 282 282 282 281 281 280 280 280 281 280 279 279 279 278 279 279 280 280 278 277 277 278 280 282 283 284 285 286 287 288 287 285 282 280 280 282 282 282 281
235 235 235 235 235 236 236 236 237 237 238 239 241 242 243 244 245 247 248 249 250 251 252 254 255 256 259 261 264 266 268 269 270 269 268 267 266 266 267 269 271 273 276 277 279 281 281 282 282 282 281 281 281 280 280 280 279 279 277 276 275 276 278 280 280 279 278 277 278 278 279 280 280 281 282 283 284 286 286 286 284 280 277 277 279 282 283 282
236 236 237 237 237 238 238 239 239 239 239 240 242 243 244 245 247 248 249 250 251 252 253 254 256 257 259 262 264 266 267 268 268 268 267 266 266 267 269 271 273 275 277 279 281 281 281 281 280 280 280 280 280 280 279 278 278 276 274 273 274 276 278 278 278 277 276 277 278 279 279 280 279 279 279 280 282 283 283 283 281 278 274 273 275 279 281 280
237 237 238 238 239 239 240 241 241 242 242 242 243 244 245 246 247 249 250 251 252 253 254 255 257 259 261 262 264 265 266 267 267 267 267 267 267 268 270 272 274 276 278 280 280 280 280 279 278 278 278 278 279 279 278 277 276 274 274 275 277 277 276 275 275 275 275 275 276 277 278 279 278 277 277 278 280 281 282 281 279 277 274 272 273 277 278 277
238 238 238 239 240 241 241 241 242 244 244 245 245 246 246 247 248 250 251 252 253 254 255 257 259 260 261 263 264 265 265 266 266 267 267 267 269 270 272 273 275 277 278 279 279 279 278 277 277 276 276 277 278 278 276 275 275 275 277 279 279 277 275 275 274 273 273 274 274 275 277 277 277 276 277 278 280 282 282 282 280 277 275 273 274 276 277 276
239 239 240 240 241 242 242 242 243 244 245 246 247 247 248 249 250 251 252 253 255 256 257 258 260 261 262 263 263 264 265 266 266 267 268 268 270 271 272 274 275 276 277 278 278 278 276 275 274 274 276 278 276 274 274 275 277 278 279 280 278 276 275 275 275 274 273 273 274 275 275 275 275 276 276 277 279 281 283 283 281 278 276 275 275 275 275 274
238 239 240 241 242 243 243 244 244 244 245 246 247 248 249 250 251 252 253 254 255 257 258 258 259 260 262 262 263 263 265 266 266 267 268 269 270 271 272 273 275 276 277 277 277 275 274 272 272 275 278 275 272 273 276 278 279 280 280 279 278 277 276 276 275 274 274 274 274 275 275 275 275 275 276 276 277 280 282 281 280 278 276 274 274 273 273 273
237 238 239 241 242 243 244 245 245 245 246 247 247 249 250 251 252 253 253 254 255 256 257 258 259 260 262 262 263 264 265 265 266 267 268 269 270 270 271 272 274 275 275 275 273 272 271 270 273 277 275 271 272 275 278 279 280 280 280 280 279 278 278 277 275 275 276 275 275 274 274 275 275 275 275 276 277 279 280 281 279 277 275 274 274 273 273 273
237 237 238 239 241 242 244 245 246 247 247 248 248 249 250 252 253 253 254 254 255 256 257 258 259 260 262 263 263 263 264 265 266 266 267 268 269 269 270 272 272 272 273 271 269 268 269 272 275 274 271 271 275 277 278 279 280 281 281 281 280 280 280 278 276 275 275 275 276 275 275 275 274 274 275 276 276 278 279 279 279 277 275 274 274 274 274 275
238 238 239 239 240 241 243 244 246 247 248 249 250 250 251 252 253 254 254 255 255 256 257 258 259 261 261 262 263 263 264 265 265 266 267 267 268 269 270 270 270 270 268 267 267 268 270 271 272 269 270 273 276 277 279 280 281 281 282 280 280 281 281 278 276 275 275 276 277 276 274 273 273 273 275 275 276 277 278 278 279 278 277 277 276 276 276 276
239 239 240 240 241 242 242 243 245 246 248 249 250 251 251 252 253 254 255 255 255 256 257 258 259 260 260 261 263 263 263 264 265 266 267 268 268 269 269 268 267 266 264 265 267 268 269 269 267 268 271 274 275 276 278 280 282 283 282 281 281 280 278 277 276 276 276 276 276 276 274 272 272 273 274 274 275 276 278 278 279 279 279 279 278 278 278 279
240 241 241 242 242 243 244 244 245 246 247 249 250 251 252 252 253 254 255 255 255 254 256 257 258 259 260 261 261 262 263 263 264 266 266 267 267 267 267 265 263 263 264 266 266 266 266 266 265 268 271 273 273 274 277 281 283 283 282 282 282 279 276 277 278 277 276 275 275 275 274 274 273 273 273 274 275 276 278 280 281 281 281 281 281 281 281 281
242 242 242 243 243 243 244 245 246 247 248 249 250 250 251 252 253 254 255 256 255 253 254 256 257 258 258 259 260 262 263 263 264 265 265 265 265 265 265 264 263 265 265 265 264 263 263 263 265 269 271 271 272 274 279 283 283 282 282 282 282 279 277 277 277 277 276 275 276 275 277 277 273 272 274 274 275 278 281 283 284 285 285 285 285 285 285 284
244 244 244 244 245 245 245 246 246 247 249 249 250 251 251 252 253 254 255 256 255 253 252 254 255 257 257 259 261 261 262 262 263 263 264 264 265 265 265 264 264 264 263 262 261 260 261 263 266 268 269 270 272 277 282 284 282 281 282 282 281 280 279 277 276 277 277 278 276 275 278 279 274 272 273 274 276 281 283 284 284 285 286 286 287 286 286 286
243 244 245 245 246 246 247 247 246 247 248 249 249 250 251 251 252 253 254 256 255 253 252 252 253 256 257 258 259 260 262 263 263 263 264 264 264 264 264 264 264 263 261 259 259 260 261 263 265 267 269 271 274 279 282 282 282 283 284 281 278 278 278 277 276 276 277 278 276 275 277 278 274 272 271 271 277 282 282 283 283 283 283 284 284 284 284 283
243 244 246 246 246 247 248 247 247 247 246 246 247 248 249 250 251 252 253 255 255 254 253 252 252 254 257 258 258 260 263 265 264 264 264 264 264 263 264 264 263 261 259 258 259 261 261 263 265 268 269 272 276 279 280 282 283 285 283 279 276 275 275 275 275 275 276 277 276 277 278 277 274 270 269 272 277 280 280 280 281 280 280 281 281 280 280 279
246 247 248 248 248 248 249 249 249 247 245 245 246 246 248 248 249 251 251 253 255 256 255 254 253 254 256 258 259 259 261 263 264 265 265 265 265 264 263 263 261 259 258 259 260 261 262 265 267 268 270 273 276 278 280 282 283 283 281 277 273 272 271 271 272 273 274 274 277 280 279 277 273 267 270 278 280 281 282 281 280 279 277 276 276 276 276 276
246 247 248 248 249 249 250 251 250 248 246 245 245 245 246 247 248 248 249 251 254 256 257 257 256 256 257 257 258 260 261 262 263 264 264 265 265 264 263 261 260 259 259 259 260 262 264 266 267 268 271 273 275 278 281 282 281 279 277 274 271 269 269 268 268 269 270 273 277 279 275 273 271 269 273 281 283 284 285 283 280 278 275 273 273 274 275 277
244 245 247 247 248 249 250 252 252 250 247 245 245 245 245 246 246 246 248 251 254 256 258 259 259 258 258 259 260 261 261 261 262 262 263 263 263 262 262 260 260 260 259 259 260 262 264 265 266 268 270 273 277 280 280 278 277 275 272 269 267 266 265 265 266 266 269 273 275 273 269 268 271 274 277 280 282 284 283 281 279 276 274 273 274 275 277 280
243 244 246 246 246 248 250 251 250 249 248 246 246 246 246 245 245 246 249 251 252 255 258 260 260 260 261 262 262 262 261 262 262 262 261 260 260 259 259 258 258 258 259 260 261 262 263 264 265 267 270 275 278 278 276 275 273 270 267 264 262 263 263 264 265 267 270 272 270 268 266 266 270 276 279 281 284 284 282 280 278 276 275 275 276 277 279 282
244 244 245 246 246 248 249 249 247 246 247 247 246 247 246 246 247 250 252 251 252 255 258 260 262 263 263 263 263 263 262 261 261 261 259 258 257 257 257 257 257 258 260 261 261 261 262 263 264 268 272 276 276 273 271 270 267 264 263 262 261 263 264 265 268 269 268 268 267 266 265 267 271 274 277 282 284 284 283 282 281 280 278 277 278 279 281 284
243 242 243 246 247 246 247 248 247 245 246 247 248 248 247 247 250 252 252 252 253 255 257 260 263 264 265 265 264 263 262 261 260 259 258 257 256 256 257 257 257 258 259 260 260 261 263 264 265 269 272 273 270 268 268 265 263 262 262 262 262 264 266 268 269 268 267 266 265 264 265 269 274 277 279 281 281 283 285 285 285 284 282 281 281 283 284 285
242 239 240 243 244 244 246 248 248 246 247 249 250 249 248 250 253 253 251 252 253 255 258 261 264 266 266 266 264 263 262 261 260 259 258 256 256 256 256 256 257 257 258 260 261 262 263 264 266 268 268 266 265 265 265 263 261 261 261 262 264 267 269 269 268 267 268 267 265 265 267 271 275 278 279 280 281 283 284 284 285 285 285 286 286 286 287 288
240 238 238 239 241 243 245 247 247 248 249 251 250 249 251 254 255 254 253 254 255 257 259 261 263 265 265 264 263 262 262 262 262 261 258 255 254 254 255 256 258 259 260 261 262 263 264 264 264 263 261 261 263 264 262 260 259 259 261 264 268 269 268 267 267 267 267 267 266 267 269 271 273 276 279 282 283 284 283 284 286 287 289 290 290 289 289 290
239 239 240 239 241 244 245 245 246 247 248 247 247 250 254 256 256 255 255 254 255 256 257 258 260 262 263 262 261 261 262 262 262 261 258 256 254 253 254 257 259 260 261 263 263 263 263 263 261 259 258 259 261 260 259 256 256 258 264 268 269 268 267 268 268 266 266 266 266 268 269 271 273 277 281 282 283 284 285 287 289 291 292 291 291 290 289 290
239 240 240 239 239 241 243 244 245 246 246 244 245 248 252 252 253 254 254 253 252 252 252 255 259 261 261 261 260 260 261 261 260 260 258 257 255 253 254 257 258 259 261 261 261 261 261 261 260 258 258 259 259 259 257 256 256 261 267 269 268 269 270 269 268 266 265 266 267 269 271 272 275 279 280 280 281 283 286 290 294 295 293 291 289 288 289 290
239 240 239 235 234 236 239 242 244 244 244 244 245 247 248 248 249 250 250 249 249 250 253 256 258 258 258 258 258 259 259 258 258 259 258 257 256 255 255 256 257 257 258 258 259 258 258 260 260 260 260 261 260 260 260 259 259 262 264 266 267 269 270 270 269 266 265 266 268 271 273 274 277 278 278 278 280 283 289 294 296 294 292 290 289 288 289 289
232 236 236 230 230 233 235 238 240 241 242 242 244 246 247 247 248 249 249 248 248 250 253 254 254 253 253 254 255 255 257 257 256 256 256 256 256 255 255 255 254 253 253 253 254 255 256 260 262 263 263 263 263 264 265 263 260 259 261 263 266 269 271 272 272 269 265 266 270 274 275 276 277 277 278 279 281 287 293 296 295 292 290 289 289 289 289 289
227 228 229 227 227 229 232 237 240 242 242 242 243 244 244 244 245 246 246 245 246 247 248 248 248 248 248 249 250 252 254 256 255 254 254 254 254 253 252 251 251 250 250 251 253 256 260 263 265 264 263 264 265 266 264 262 260 260 261 264 267 272 274 275 273 270 266 267 272 274 274 275 278 280 281 282 286 292 295 294 293 291 289 289 289 288 288 288
228 226 226 225 225 226 231 235 237 241 242 241 241 241 240 240 240 240 241 241 242 243 244 245 245 245 245 246 248 250 252 253 253 253 253 253 252 252 251 250 250 250 252 255 258 259 262 263 262 261 261 262 263 262 262 263 264 265 265 267 270 273 275 275 273 270 267 268 270 270 271 276 280 282 283 287 293 296 295 294 294 292 290 290 290 289 288 287
227 226 226 225 226 226 229 231 232 237 240 240 239 239 238 238 238 239 240 240 242 243 244 245 244 244 245 246 248 249 250 251 251 252 254 255 255 254 254 254 254 255 258 261 262 261 261 261 261 261 261 261 260 260 261 262 264 266 269 271 272 273 275 274 270 268 266 265 267 268 271 276 279 281 286 292 294 293 293 294 294 292 291 290 289 289 288 288
223 222 224 225 226 227 229 231 231 234 236 236 237 237 236 236 237 238 240 241 242 243 244 244 244 244 244 246 247 247 248 250 251 253 256 257 258 257 257 258 259 261 263 264 264 262 261 260 261 261 260 259 258 257 258 262 267 271 272 272 273 274 273 270 267 266 263 262 265 268 272 277 281 285 289 290 290 290 291 291 290 289 289 288 287 287 287 287
222 222 223 224 226 228 231 233 234 234 234 235 236 236 236 237 237 238 240 242 243 244 244 244 244 244 245 246 248 248 249 251 253 254 256 257 259 260 261 263 265 267 268 268 267 264 259 258 260 260 259 259 259 260 263 268 270 269 268 268 268 267 264 262 261 260 260 262 266 270 276 281 284 286 286 286 288 288 287 287 287 288 287 286 286 286 287 287
225 225 226 226 227 229 231 234 235 233 233 235 237 237 235 236 237 239 241 243 244 244 245 245 245 246 247 247 248 249 250 252 253 255 257 259 261 263 265 266 268 270 270 271 272 266 258 256 257 259 261 262 263 264 265 266 264 263 263 262 261 259 258 257 257 258 262 267 270 273 278 281 283 283 283 284 285 285 285 287 288 287 285 285 286 287 287 286
228 227 227 229 231 232 233 235 235 233 231 233 237 237 237 237 237 238 240 242 243 244 246 246 246 246 246 247 248 250 250 251 252 255 258 260 262 263 264 265 267 268 270 272 272 268 260 256 257 259 262 263 263 263 262 261 260 259 259 258 257 257 257 258 260 264 268 270 271 274 277 279 281 281 281 283 285 285 286 286 284 284 285 286 287 286 284 283
231 231 230 230 232 234 235 234 236 236 233 233 235 237 238 239 239 239 240 241 243 244 245 246 246 245 245 245 247 248 249 250 253 256 258 261 262 262 263 265 266 267 266 266 267 265 262 260 259 260 260 261 261 261 260 258 256 255 254 253 255 257 259 261 264 267 269 270 273 275 276 279 282 281 281 284 285 284 282 281 281 283 284 284 284 282 282 282
230 233 234 233 234 235 234 233 235 237 236 234 236 238 238 240 241 242 242 244 245 244 243 244 244 244 243 243 244 245 247 250 253 257 259 262 263 264 264 264 264 263 261 259 258 257 257 257 256 256 255 256 257 257 256 254 253 252 251 252 255 258 260 261 264 267 269 272 275 276 277 280 282 281 281 282 280 278 277 277 279 279 279 280 280 280 281 282
228 230 233 235 236 236 235 234 235 238 237 236 236 237 238 240 241 241 241 243 243 243 244 245 246 246 246 245 246 247 249 250 253 255 258 259 260 261 261 260 259 259 257 256 254 252 252 253 253 253 253 252 252 252 251 250 250 250 250 254 257 258 260 264 269 272 273 274 276 277 278 281 281 279 278 277 275 274 274 275 275 275 275 276 277 279 282 284
230 230 231 233 236 236 236 236 237 239 239 237 236 236 237 238 239 240 242 242 242 243 245 246 247 248 249 248 249 251 252 253 254 255 255 255 255 255 255 254 256 256 255 254 252 248 248 249 250 251 252 252 252 251 249 248 247 248 251 256 259 262 268 273 274 274 273 274 275 274 275 279 279 276 273 272 272 272 272 273 273 273 274 276 279 282 284 285
233 234 233 232 233 234 236 237 238 240 240 239 238 237 237 237 238 241 243 243 243 244 246 246 247 247 247 248 250 252 252 253 254 253 253 252 251 251 251 251 253 253 252 251 248 245 244 246 248 249 250 251 251 250 249 248 248 250 257 262 265 270 274 274 272 273 272 271 270 270 272 274 272 270 269 269 269 270 271 273 274 275 277 280 282 283 284 284
Height
5859 5860 5862 5863 5864 5866 5867 5868 5870 5871 5872 5873 5874 5875 5876 5877 5878 5879 5879 5880 5881 5881 5882 5882 5883 5883 5883 5884 5885 5885 5886 5887 5887 5888 5888 5889 5889 5889 5890 5890 5890 5890 5891 5891 5891 5891 5891 5891 5891 5891 5891 5891 5890 5890 5890 5889 5889 5888 5888 5888 5887 5887 5886 5885 5885 5884 5883 5882 5882 5882 5882 5881 5880 5879 5879 5880 5881 5882 5881 5881 5880 5880 5879 5878 5878 5878 5877 5877
5857 5858 5860 5861 5863 5864 5865 5866 5868 5869 5870 5871 5872 5873 5874 5875 5876 5877 5878 5878 5879 5880 5880 5881 5881 5882 5882 5883 5883 5884 5885 5885 5886 5887 5887 5887 5888 5888 5889 5889 5889 5889 5889 5890 5890 5890 5890 5890 5890 5890 5890 5889 5889 5888 5888 5888 5887 5887 5886 5886 5885 5885 5884 5884 5883 5882 5881 5880 5880 5880 5880 5879 5879 5879 5878 5878 5879 5879 5879 5879 5879 5879 5878 5877 5877 5876 5876 5875
5855 5857 5858 5859 5861 5862 5863 5864 5866 5867 5868 5869 5870 5872 5872 5873 5874 5875 5876 5877 5877 5878 5879 5879 5880 5880 5881 5881 5882 5882 5883 5884 5885 5885 5886 5886 5886 5887 5887 5887 5887 5888 5888 5888 5888 5888 5888 5888 5888 5888 5888 5888 5887 5887 5886 5886 5885 5885 5884 5884 5884 5883 5882 5882 5881 5880 5879 5879 5878 5878 5877 5877 5877 5877 5877 5876 5877 5877 5877 5877 5877 5877 5877 5876 5876 5875 5875 5874
5853 5854 5856 5857 5859 5860 5861 5862 5864 5865 5866 5867 5868 5869 5870 5871 5872 5873 5874 5875 5875 5876 5877 5877 5878 5878 5879 5880 5880 5881 5881 5882 5883 5883 5884 5884 5885 5885 5885 5885 5886 5886 5886 5886 5886 5886 5887 5886 5886 5886 5886 5886 5885 5885 5884 5884 5883 5883 5882 5882 5882 5881 5880 5880 5879 5878 5878 5877 5876 5876 5875 5875 5875 5875 5875 5875 5875 5874 5874 5874 5875 5875 5875 5875 5874 5874 5873 5873
5850 5851 5853 5855 5856 5858 5859 5860 5862 5863 5864 5865 5866 5867 5868 5869 5870 5871 5872 5873 5873 5874 5875 5876 5876 5877 5877 5878 5879 5879 5880 5880 5881 5882 5882 5882 5882 5883 5883 5883 5884 5884 5884 5884 5884 5884 5885 5885 5884 5884 5884 5884 5883 5883 5882 5882 5881 5881 5880 5880 5879 5879 5878 5878 5877 5877 5876 5875 5875 5874 5874 5874 5874 5874 5874 5873 5873 5872 5872 5872 5872 5872 5872 5872 5872 5872 5872 5871
5847 5848 5850 5852 5853 5855 5856 5858 5859 5860 5862 5863 5864 5865 5866 5867 5868 5869 5869 5870 5871 5872 5873 5874 5874 5875 5876 5876 5877 5877 5877 5878 5879 5880 5880 5880 5880 5881 5881 5881 5882 5882 5882 5882 5882 5882 5883 5883 5882 5882 5882 5882 5881 5881 5880 5879 5879 5879 5878 5877 5877 5877 5877 5876 5875 5875 5874 5874 5873 5873 5872 5872 5872 5872 5872 5872 5872 5871 5871 5870 5870 5870 5869 5869 5869 5869 5869 5869
5843 5845 5847 5848 5850 5852 5853 5855 5856 5858 5859 5860 5861 5862 5863 5864 5865 5866 5867 5868 5869 5870 5871 5872 5872 5873 5874 5874 5875 5875 5875 5876 5878 5877 5877 5878 5878 5879 5879 5879 5879 5880 5880 5880 5880 5880 5880 5880 5880 5880 5880 5879 5879 5878 5878 5877 5877 5876 5876 5875 5875 5875 5874 5874 5874 5873 5873 5872 5872 5871 5870 5870 5869 5870 5870 5869 5870 5869 5869 5869 5868 5867 5867 5867 5866 5866 5866 5866
5840 5842 5843 5845 5847 5848 5850 5852 5853 5854 5856 5857 5858 5859 5861 5862 5863 5864 5865 5866 5867 5868 5868 5869 5870 5871 5872 5872 5873 5873 5873 5874 5876 5875 5875 5875 5876 5876 5877 5877 5877 5877 5878 5878 5878 5878 5878 5878 5878 5878 5877 5877 5877 5876 5876 5875 5874 5874 5874 5873 5873 5872 5872 5872 5872 5872 5871 5870 5870 5869 5868 5868 5867 5867 5867 5867 5867 5867 5867 5866 5865 5865 5864 5864 5863 5863 5862 5862
5836 5838 5840 5841 5843 5845 5847 5848 5850 5851 5853 5854 5855 5856 5858 5859 5860 5861 5862 5863 5864 5865 5866 5867 5868 5868 5869 5870 5870 5870 5870 5871 5873 5873 5873 5873 5873 5874 5874 5875 5875 5875 5875 5875 5875 5875 5875 5875 5875 5875 5875 5874 5874 5874 5873 5873 5872 5872 5871 5870 5870 5870 5869 5870 5869 5869 5869 5868 5868 5867 5866 5866 5864 5864 5864 5864 5864 5864 5864 5863 5863 5862 5862 5861 5861 5860 5860 5859
5833 5835 5836 5838 5839 5841 5843 5845 5846 5848 5849 5850 5852 5853 5854 5856 5857 5858 5859 5860 5861 5862 5863 5864 5865 5866 5867 5867 5868 5868 5867 5869 5870 5870 5870 5870 5871 5871 5872 5872 5872 5872 5873 5873 5873 5873 5873 5873 5872 5872 5872 5872 5871 5871 5870 5870 5870 5869 5869 5868 5867 5867 5866 5866 5866 5866 5866 5866 5865 5865 5864 5863 5862 5861 5861 5861 5861 5861 5861 5861 5860 5860 5859 5859 5858 5858 5857 5857
5829 5831 5832 5834 5836 5837 5839 5841 5842 5844 5845 5847 5848 5850 5851 5852 5854 5855 5856 5857 5858 5859 5860 5861 5862 5863 5864 5864 5865 5865 5864 5866 5867 5867 5868 5868 5868 5869 5869 5869 5870 5870 5870 5870 5870 5870 5870 5870 5869 5869 5869 5869 5868 5868 5868 5867 5867 5867 5866 5865 5865 5864 5863 5863 5863 5863 5863 5863 5863 5862 5861 5860 5859 5859 5858 5858 5858 5859 5858 5858 5857 5857 5856 5856 5856 5855 5855 5855
5825 5827 5829 5830 5832 5834 5835 5837 5839 5840 5842 5843 5845 5846 5848 5849 5850 5852 5853 5854 5855 5856 5857 5858 5858 5859 5860 5861 5862 5862 5862 5863 5864 5864 5865 5865 5866 5866 5866 5866 5867 5867 5867 5867 5867 5867 5867 5867 5866 5866 5866 5865 5865 5865 5865 5864 5864 5864 5864 5863 5862 5861 5861 5861 5860 5860 5860 5860 5860 5859 5858 5858 5857 5856 5856 5855 5855 5855 5855 5855 5854 5854 5853 5853 5853 5853 5852 5852
5821 5823 5825 5826 5828 5830 5831 5833 5835 5836 5838 5839 5841 5842 5844 5845 5847 5848 5849 5850 5851 5852 5853 5854 5855 5856 5857 5858 5859 5859 5859 5859 5860 5861 5861 5862 5862 5863 5863 5863 5864 5864 5864 5864 5864 5864 5863 5863 5863 5863 5862 5862 5862 5861 5861 5861 5861 5861 5860 5860 5859 5858 5858 5858 5858 5857 5857 5856 5857 5856 5856 5855 5854 5853 5853 5853 5852 5852 5852 5851 5851 5851 5850 5850 5850 5849 5849 5849
5816 5818 5821 5822 5824 5826 5828 5829 5831 5832 5834 5835 5837 5838 5840 5841 5843 5844 5845 5846 5847 5848 5849 5850 5851 5852 5853 5855 5855 5855 5856 5856 5857 5857 5858 5858 5859 5859 5860 5860 5860 5860 5860 5860 5860 5860 5860 5860 5859 5859 5859 5859 5858 5858 5857 5858 5858 5857 5857 5857 5857 5856 5855 5855 5855 5854 5853 5853 5853 5853 5853 5853 5852 5850 5850 5850 5850 5849 5849 5848 5848 5848 5847 5847 5847 5846 5846 5846
5811 5814 5816 5818 5820 5822 5823 5825 5827 5828 5830 5831 5833 5834 5835 5837 5838 5840 5841 5842 5843 5844 5846 5847 5848 5849 5850 5851 5852 5852 5852 5853 5853 5853 5854 5855 5855 5856 5856 5856 5856 5856 5856 5856 5857 5856 5856 5856 5856 5855 5855 5855 5855 5854 5854 5854 5854 5854 5853 5853 5854 5854 5853 5853 5852 5851 5850 5850 5850 5849 5849 5849 5849 5848 5847 5847 5847 5847 5846 5846 5845 5844 5844 5844 5844 5843 5843 5843
5807 5809 5812 5814 5815 5817 5819 5821 5822 5824 5825 5827 5828 5829 5831 5832 5834 5835 5837 5838 5839 5840 5842 5843 5844 5845 5846 5847 5848 5848 5849 5849 5849 5850 5850 5851 5851 5852 5852 5852 5853 5853 5853 5853 5853 5853 5852 5852 5852 5852 5852 5852 5852 5851 5850 5850 5850 5850 5849 5850 5851 5851 5851 5850 5848 5848 5847 5847 5846 5846 5846 5846 5845 5845 5845 5845 5845 5844 5844 5843 5842 5842 5841 5841 5840 5840 5840 5840
5802 5805 5807 5809 5810 5812 5814 5816 5818 5819 5821 5822 5823 5825 5826 5828 5829 5831 5832 5833 5835 5836 5837 5839 5840 5841 5841 5843 5844 5844 5845 5845 5845 5846 5846 5847 5847 5848 5848 5848 5848 5849 5849 5849 5849 5849 5848 5848 5848 5848 5849 5849 5849 5847 5846 5846 5846 5846 5846 5847 5848 5848 5847 5847 5845 5844 5843 5843 5843 5843 5843 5843 5842 5842 5842 5842 5842 5841 5841 5840 5839 5839 5838 5838 5837 5837 5837 5836
5797 5799 5801 5804 5805 5807 5809 5810 5812 5814 5816 5817 5819 5820 5821 5823 5824 5826 5827 5829 5830 5832 5833 5834 5836 5836 5837 5839 5840 5840 5840 5841 5841 5841 5842 5842 5843 5843 5844 5844 5844 5845 5845 5845 5845 5845 5844 5844 5844 5845 5846 5846 5844 5842 5842 5843 5843 5842 5843 5843 5843 5844 5844 5843 5842 5840 5840 5840 5840 5840 5840 5840 5839 5839 5839 5839 5838 5837 5837 5836 5836 5836 5835 5835 5834 5834 5833 5833
5791 5794 5796 5798 5800 5802 5804 5805 5807 5809 5811 5812 5814 5815 5817 5818 5819 5821 5822 5824 5825 5827 5828 5829 5830 5831 5833 5835 5835 5836 5836 5837 5837 5837 5837 5838 5838 5839 5839 5839 5840 5840 5840 5840 5840 5840 5840 5840 5841 5842 5843 5841 5839 5839 5839 5839 5839 5839 5839 5839 5839 5839 5840 5840 5838 5836 5836 5836 5836 5836 5836 5836 5835 5835 5836 5835 5835 5834 5833 5833 5832 5832 5832 5832 5831 5831 5831 5830
5785 5788 5790 5792 5795 5796 5798 5800 5802 5804 5805 5806 5808 5810 5812 5813 5814 5816 5817 5819 5820 5821 5822 5824 5825 5826 5828 5829 5830 5831 5832 5832 5832 5832 5833 5834 5834 5834 5834 5835 5836 5836 5836 5836 5836 5836 5836 5836 5838 5839 5838 5836 5835 5835 5835 5835 5835 5835 5835 5835 5835 5835 5836 5836 5834 5833 5832 5831 5832 5833 5832 5833 5832 5831 5832 5832 5831 5831 5830 5829 5829 5829 5829 5829 5828 5828 5828 5828
5779 5781 5784 5786 5789 5791 5792 5794 5796 5799 5800 5801 5803 5804 5806 5808 5808 5810 5812 5813 5814 5816 5817 5818 5820 5821 5823 5824 5825 5826 5826 5827 5827 5828 5828 5829 5829 5829 5830 5831 5831 5831 5832 5831 5831 5832 5832 5832 5835 5834 5832 5831 5832 5832 5832 5831 5831 5831 5831 5830 5830 5831 5831 5831 5829 5829 5828 5826 5828 5828 5828 5829 5828 5827 5828 5827 5827 5827 5826 5826 5825 5825 5826 5826 5826 5825 5825 5825
5773 5775 5778 5780 5783 5785 5786 5788 5791 5793 5794 5796 5798 5799 5801 5802 5803 5804 5806 5807 5809 5810 5811 5813 5815 5816 5818 5818 5819 5820 5821 5821 5822 5823 5824 5824 5824 5825 5826 5826 5826 5827 5827 5827 5827 5828 5828 5829 5831 5829 5827 5828 5828 5828 5827 5827 5827 5827 5827 5826 5826 5827 5826 5825 5824 5824 5823 5822 5823 5824 5823 5824 5823 5823 5824 5823 5823 5823 5822 5822 5822 5822 5822 5823 5823 5823 5823 5822
5767 5770 5772 5774 5777 5778 5781 5783 5785 5787 5789 5791 5793 5794 5795 5796 5797 5798 5799 5800 5803 5805 5806 5807 5809 5810 5812 5812 5814 5814 5815 5816 5817 5818 5819 5819 5820 5820 5821 5822 5822 5822 5822 5823 5823 5823 5823 5825 5825 5824 5824 5825 5824 5824 5823 5823 5823 5823 5822 5821 5822 5823 5821 5820 5820 5820 5819 5819 5819 5819 5818 5820 5820 5819 5819 5819 5819 5818 5818 5819 5819 5819 5819 5819 5820 5820 5819 5819
5761 5764 5766 5769 5771 5772 5775 5776 5779 5782 5783 5785 5787 5788 5789 5790 5791 5792 5792 5793 5795 5799 5801 5801 5803 5804 5806 5807 5808 5808 5809 5812 5812 5813 5815 5815 5815 5816 5817 5818 5817 5817 5818 5819 5819 5818 5819 5820 5820 5820 5820 5820 5819 5819 5819 5819 5819 5818 5818 5817 5818 5818 5816 5815 5815 5815 5815 5814 5815 5814 5813 5816 5816 5815 5815 5815 5814 5814 5814 5815 5815 5815 5815 5815 5816 5816 5816 5815
5755 5757 5760 5763 5764 5767 5769 5771 5774 5776 5777 5780 5781 5781 5783 5784 5785 5786 5786 5785 5787 5793 5796 5796 5797 5798 5800 5801 5802 5804 5805 5806 5808 5809 5810 5810 5811 5812 5812 5813 5813 5813 5815 5814 5813 5813 5814 5815 5816 5815 5816 5815 5815 5815 5816 5815 5814 5813 5813 5814 5813 5812 5812 5811 5811 5810 5809 5810 5811 5810 5808 5811 5812 5810 5810 5811 5810 5811 5811 5811 5811 5811 5811 5811 5811 5811 5811 5811
5748 5751 5754 5756 5758 5760 5762 5766 5769 5770 5772 5774 5774 5775 5777 5778 5779 5780 5781 5779 5779 5786 5791 5791 5791 5792 5794 5796 5798 5799 5799 5801 5804 5804 5805 5806 5807 5807 5807 5808 5808 5809 5810 5809 5808 5807 5810 5811 5811 5810 5811 5811 5810 5811 5812 5810 5808 5808 5809 5810 5808 5808 5807 5807 5806 5805 5804 5805 5806 5806 5805 5806 5807 5806 5806 5806 5806 5807 5807 5807 5806 5806 5806 5806 5806 5807 5807 5806
5742 5744 5747 5750 5752 5754 5757 5761 5763 5764 5767 5767 5767 5769 5771 5771 5773 5774 5775 5772 5771 5778 5783 5785 5786 5787 5789 5792 5793 5793 5793 5796 5800 5800 5800 5801 5802 5802 5802 5803 5804 5804 5804 5803 5801 5803 5806 5807 5806 5806 5806 5806 5806 5807 5807 5805 5803 5803 5805 5805 5803 5803 5803 5802 5802 5801 5800 5801 5801 5802 5802 5801 5802 5803 5802 5802 5802 5802 5802 5802 5802 5802 5802 5802 5802 5802 5802 5802
5735 5737 5740 5743 5745 5748 5752 5754 5756 5758 5759 5759 5760 5763 5763 5765 5766 5768 5769 5766 5765 5770 5774 5778 5782 5783 5784 5786 5788 5788 5788 5792 5794 5794 5795 5796 5796 5797 5796 5798 5799 5799 5798 5797 5797 5799 5801 5801 5801 5802 5801 5801 5802 5802 5801 5799 5798 5799 5799 5799 5799 5799 5798 5797 5797 5796 5796 5796 5796 5799 5799 5797 5797 5799 5798 5798 5799 5798 5798 5798 5798 5798 5798 5798 5798 5798 5798 5798
5728 5730 5734 5736 5738 5742 5745 5748 5750 5750 5750 5751 5753 5755 5756 5758 5759 5762 5762 5760 5760 5762 5765 5771 5776 5779 5780 5781 5782 5784 5785 5787 5788 5789 5790 5790 5790 5791 5791 5792 5793 5792 5793 5793 5793 5794 5796 5796 5797 5797 5796 5797 5797 5796 5795 5794 5793 5794 5794 5794 5794 5793 5793 5792 5792 5792 5791 5791 5792 5795 5795 5793 5792 5794 5795 5795 5796 5795 5795 5795 5795 5795 5795 5795 5795 5795 5795 5794
5721 5724 5727 5728 5732 5735 5738 5742 5743 5741 5742 5744 5745 5747 5749 5750 5753 5755 5753 5754 5757 5755 5756 5763 5770 5773 5775 5776 5777 5779 5781 5782 5783 5784 5784 5784 5785 5786 5786 5787 5786 5787 5787 5788 5788 5789 5791 5791 5791 5791 5792 5792 5791 5790 5790 5789 5789 5789 5789 5789 5789 5788 5788 5787 5787 5787 5786 5787 5790 5791 5790 5788 5786 5789 5793 5793 5792 5793 5792 5792 5792 5792 5791 5791 5791 5791 5791 5791
5714 5717 5720 5722 5726 5729 5733 5736 5735 5734 5735 5736 5737 5739 5740 5742 5745 5744 5744 5750 5753 5748 5749 5757 5762 5765 5768 5770 5772 5774 5775 5776 5777 5778 5778 5779 5779 5780 5781 5781 5781 5781 5781 5782 5783 5785 5785 5785 5786 5786 5786 5786 5786 5785 5785 5784 5784 5784 5784 5784 5783 5783 5782 5782 5782 5782 5782 5783 5786 5786 5785 5783 5781 5785 5788 5788 5789 5789 5788 5788 5788 5788 5788 5787 5787 5787 5787 5787
5707 5710 5713 5716 5720 5723 5727 5729 5727 5726 5727 5728 5729 5730 5732 5734 5732 5734 5741 5746 5745 5742 5745 5750 5753 5758 5761 5764 5766 5768 5769 5770 5771 5772 5772 5773 5773 5774 5775 5775 5776 5776 5775 5777 5779 5779 5779 5779 5780 5780 5780 5781 5781 5780 5779 5779 5779 5778 5778 5778 5778 5777 5777 5777 5777 5778 5778 5779 5780 5780 5779 5778 5778 5781 5782 5782 5783 5783 5783 5784 5784 5784 5783 5783 5783 5782 5782 5782
5700 5703 5705 5709 5713 5717 5720 5721 5719 5719 5720 5721 5721 5722 5724 5722 5721 5731 5738 5738 5737 5739 5742 5743 5745 5750 5754 5756 5759 5761 5763 5764 5765 5765 5766 5766 5767 5768 5769 5770 5771 5771 5770 5772 5773 5773 5773 5773 5775 5775 5776 5776 5775 5774 5774 5774 5774 5773 5773 5773 5773 5772 5772 5773 5774 5774 5774 5774 5775 5774 5773 5773 5775 5778 5777 5777 5777 5777 5777 5778 5778 5778 5778 5778 5777 5777 5777 5776
5693 5695 5698 5702 5706 5709 5713 5712 5711 5713 5713 5712 5712 5713 5713 5711 5718 5728 5730 5730 5733 5735 5737 5738 5739 5742 5745 5749 5752 5754 5755 5756 5758 5758 5759 5760 5760 5762 5764 5765 5766 5766 5766 5766 5766 5767 5767 5768 5770 5770 5770 5770 5769 5769 5769 5769 5768 5768 5769 5768 5768 5769 5769 5769 5770 5769 5769 5769 5769 5769 5768 5769 5771 5772 5773 5773 5772 5772 5772 5772 5772 5772 5772 5772 5772 5772 5771 5770
5685 5687 5690 5694 5697 5702 5705 5705 5704 5705 5705 5704 5704 5702 5701 5706 5716 5721 5720 5725 5729 5729 5732 5733 5733 5735 5738 5740 5743 5745 5747 5748 5750 5752 5752 5753 5754 5756 5758 5758 5759 5760 5760 5760 5760 5761 5761 5762 5764 5764 5764 5764 5764 5764 5764 5763 5763 5764 5764 5764 5764 5767 5767 5765 5764 5764 5764 5764 5764 5764 5765 5766 5767 5767 5767 5767 5768 5769 5768 5767 5767 5766 5765 5766 5766 5765 5764 5763
5676 5678 5682 5687 5691 5696 5698 5698 5697 5697 5697 5697 5694 5691 5695 5704 5710 5712 5715 5720 5722 5724 5728 5727 5726 5728 5730 5732 5734 5736 5738 5740 5742 5744 5745 5747 5747 5749 5751 5752 5753 5754 5755 5755 5755 5755 5755 5756 5758 5758 5758 5759 5758 5758 5759 5758 5758 5759 5759 5760 5762 5763 5762 5760 5759 5759 5759 5758 5758 5760 5761 5762 5762 5762 5762 5763 5763 5763 5763 5762 5762 5761 5760 5760 5759 5758 5757 5756
5668 5671 5675 5681 5687 5689 5691 5692 5691 5689 5689 5687 5683 5684 5694 5700 5702 5706 5710 5713 5715 5719 5720 5719 5720 5721 5722 5724 5726 5729 5730 5732 5734 5736 5738 5740 5740 5743 5745 5746 5747 5748 5749 5749 5748 5749 5749 5749 5751 5752 5752 5753 5752 5753 5753 5753 5753 5754 5755 5757 5758 5756 5755 5755 5754 5754 5755 5753 5754 5755 5756 5757 5757 5757 5759 5758 5757 5757 5756 5756 5756 5756 5755 5754 5753 5752 5750 5749
5663 5665 5668 5675 5681 5682 5683 5685 5683 5682 5682 5677 5674 5682 5691 5693 5696 5700 5702 5704 5708 5710 5711 5712 5714 5714 5715 5716 5718 5721 5722 5723 5726 5728 5730 5733 5734 5736 5739 5740 5741 5742 5742 5742 5741 5743 5743 5743 5745 5746 5746 5747 5747 5747 5747 5748 5749 5750 5751 5752 5751 5749 5750 5750 5750 5749 5750 5749 5749 5750 5751 5751 5752 5753 5754 5753 5752 5751 5751 5751 5751 5750 5749 5748 5747 5745 5744 5744
5657 5656 5659 5668 5673 5673 5675 5676 5674 5674 5672 5666 5668 5678 5684 5686 5691 5694 5695 5698 5701 5702 5703 5706 5708 5708 5708 5710 5711 5713 5714 5715 5718 5720 5722 5725 5727 5729 5732 5733 5735 5736 5736 5736 5736 5737 5737 5737 5738 5739 5740 5741 5741 5741 5742 5744 5746 5746 5746 5745 5744 5744 5744 5745 5745 5745 5745 5743 5743 5744 5744 5745 5747 5748 5748 5747 5746 5746 5746 5746 5745 5744 5743 5741 5740 5739 5739 5738
5649 5647 5652 5661 5664 5665 5669 5668 5664 5661 5659 5658 5664 5674 5678 5680 5684 5687 5690 5693 5694 5695 5697 5700 5702 5702 5702 5704 5705 5706 5707 5708 5711 5713 5715 5718 5720 5722 5725 5727 5729 5730 5730 5730 5730 5731 5731 5731 5732 5733 5734 5734 5734 5736 5739 5740 5740 5739 5738 5738 5739 5739 5739 5740 5740 5739 5739 5738 5738 5739 5737 5738 5739 5740 5740 5740 5740 5741 5740 5740 5739 5738 5736 5735 5734 5733 5733 5732
5642 5639 5645 5653 5655 5659 5662 5656 5651 5650 5651 5655 5662 5668 5671 5672 5676 5680 5682 5684 5686 5688 5691 5693 5695 5696 5696 5698 5698 5700 5701 5701 5704 5706 5708 5711 5713 5716 5719 5721 5722 5723 5723 5723 5725 5726 5726 5726 5726 5727 5727 5728 5729 5732 5733 5732 5732 5732 5732 5732 5733 5734 5734 5733 5732 5733 5733 5733 5734 5733 5731 5730 5731 5731 5733 5733 5733 5734 5733 5732 5731 5730 5729 5728 5728 5727 5727 5725
5633 5633 5640 5646 5647 5652 5652 5645 5644 5644 5645 5651 5658 5661 5663 5665 5669 5672 5674 5677 5679 5682 5684 5686 5688 5689 5690 5691 5692 5694 5695 5696 5698 5699 5701 5705 5708 5710 5712 5714 5715 5717 5717 5718 5721 5722 5720 5720 5719 5719 5721 5722 5723 5725 5725 5724 5725 5725 5725 5727 5728 5728 5727 5726 5726 5728 5728 5727 5727 5726 5724 5725 5725 5724 5725 5726 5726 5725 5724 5723 5723 5721 5720 5720 5720 5719 5718 5717
5624 5628 5635 5637 5639 5644 5641 5636 5638 5638 5639 5647 5653 5653 5656 5659 5662 5664 5667 5670 5672 5675 5677 5679 5682 5683 5685 5686 5687 5688 5690 5691 5692 5694 5696 5698 5700 5703 5704 5706 5708 5710 5711 5712 5715 5715 5714 5713 5713 5713 5715 5716 5716 5717 5717 5717 5718 5719 5721 5723 5722 5722 5722 5721 5721 5721 5721 5720 5720 5719 5718 5719 5720 5719 5718 5719 5719 5717 5716 5715 5714 5712 5711 5711 5711 5710 5708 5707
5617 5621 5625 5627 5630 5633 5629 5627 5631 5633 5636 5642 5644 5644 5649 5652 5654 5657 5660 5662 5665 5669 5671 5673 5676 5678 5679 5680 5681 5683 5684 5685 5686 5688 5689 5691 5693 5696 5697 5699 5701 5702 5704 5705 5707 5708 5707 5707 5707 5706 5707 5708 5708 5709 5710 5711 5713 5714 5716 5716 5715 5716 5716 5714 5714 5714 5713 5713 5713 5712 5712 5713 5714 5714 5712 5712 5712 5711 5710 5709 5707 5706 5705 5704 5703 5702 5701 5700
5612 5613 5615 5617 5620 5621 5619 5622 5627 5629 5632 5635 5636 5639 5643 5644 5647 5651 5653 5655 5659 5662 5664 5666 5669 5671 5672 5673 5674 5676 5677 5678 5680 5681 5682 5684 5686 5688 5690 5691 5693 5694 5696 5697 5699 5700 5699 5699 5700 5698 5699 5700 5701 5702 5705 5707 5708 5708 5709 5709 5709 5709 5708 5707 5707 5704 5703 5705 5706 5706 5707 5707 5708 5706 5705 5706 5705 5704 5704 5702 5701 5700 5698 5697 5696 5695 5694 5693
5604 5605 5607 5609 5611 5611 5613 5617 5620 5622 5626 5629 5630 5633 5636 5638 5642 5645 5647 5649 5652 5655 5657 5659 5662 5663 5664 5666 5667 5668 5670 5672 5673 5674 5676 5678 5680 5682 5683 5684 5685 5687 5688 5688 5690 5692 5691 5691 5692 5692 5693 5693 5694 5696 5698 5700 5700 5700 5701 5702 5702 5701 5700 5699 5697 5694 5697 5699 5700 5702 5701 5701 5702 5699 5697 5701 5700 5696 5695 5695 5694 5692 5690 5689 5688 5688 5687 5685
5595 5597 5600 5603 5603 5604 5606 5609 5612 5615 5621 5622 5622 5626 5630 5632 5636 5638 5639 5642 5645 5648 5650 5651 5653 5655 5657 5659 5661 5661 5664 5666 5666 5668 5670 5672 5673 5675 5676 5677 5678 5680 5681 5681 5682 5683 5683 5684 5686 5687 5687 5687 5688 5689 5690 5692 5692 5693 5694 5695 5694 5694 5693 5691 5688 5689 5692 5691 5693 5698 5695 5694 5697 5692 5689 5693 5693 5689 5688 5687 5684 5683 5682 5681 5681 5679 5677 5675
5588 5590 5594 5596 5596 5597 5600 5605 5607 5610 5614 5615 5615 5619 5623 5625 5628 5630 5633 5635 5638 5641 5642 5642 5645 5649 5651 5653 5655 5654 5657 5658 5659 5661 5663 5664 5666 5667 5669 5670 5671 5673 5674 5674 5674 5675 5675 5677 5680 5680 5680 5681 5681 5682 5683 5684 5684 5686 5687 5687 5688 5687 5685 5683 5682 5685 5685 5682 5687 5692 5687 5686 5690 5686 5682 5686 5686 5682 5680 5678 5676 5676 5675 5674 5672 5669 5667 5666
5581 5584 5588 5589 5590 5592 5596 5600 5601 5603 5606 5608 5608 5611 5615 5617 5621 5624 5627 5629 5630 5633 5634 5635 5639 5643 5644 5646 5647 5646 5648 5651 5651 5654 5656 5657 5658 5660 5662 5662 5663 5665 5667 5667 5668 5669 5669 5670 5671 5672 5672 5673 5674 5674 5675 5676 5676 5678 5679 5681 5682 5680 5677 5675 5676 5678 5677 5676 5681 5682 5677 5679 5682 5678 5675 5678 5677 5674 5672 5670 5670 5669 5667 5666 5664 5661 5659 5658
5574 5577 5581 5583 5584 5587 5590 5592 5594 5595 5598 5599 5600 5604 5608 5611 5615 5618 5619 5621 5622 5625 5627 5629 5633 5636 5636 5637 5638 5639 5641 5644 5645 5647 5650 5650 5651 5653 5654 5655 5656 5657 5658 5659 5661 5663 5663 5662 5663 5665 5664 5664 5665 5666 5667 5668 5668 5668 5672 5675 5673 5670 5668 5669 5671 5672 5669 5667 5671 5671 5667 5670 5673 5670 5669 5669 5667 5665 5664 5663 5663 5662 5660 5658 5656 5654 5653 5652
5566 5569 5573 5576 5577 5580 5583 5585 5587 5588 5589 5591 5594 5598 5602 5605 5609 5611 5611 5612 5615 5617 5620 5622 5625 5627 5627 5629 5631 5632 5633 5636 5638 5639 5642 5643 5644 5646 5646 5647 5648 5649 5650 5652 5653 5655 5655 5655 5656 5657 5656 5656 5659 5659 5659 5660 5659 5659 5666 5669 5665 5662 5664 5664 5663 5664 5662 5660 5662 5661 5657 5660 5665 5663 5661 5659 5658 5657 5656 5656 5655 5654 5653 5651 5650 5648 5646 5645
5557 5560 5564 5568 5569 5572 5575 5578 5580 5580 5582 5586 5589 5592 5595 5598 5601 5603 5603 5605 5608 5610 5611 5615 5617 5618 5620 5622 5624 5624 5625 5628 5630 5631 5633 5634 5635 5637 5638 5639 5641 5641 5642 5644 5646 5647 5648 5648 5649 5649 5648 5650 5652 5651 5652 5652 5650 5652 5661 5664 5660 5658 5659 5657 5654 5655 5655 5653 5652 5649 5649 5654 5656 5653 5652 5651 5649 5649 5649 5648 5647 5646 5646 5644 5642 5641 5638 5637